Flag for Italy Weather past 2 weeks in Modena, Italy

Now
70 °F

Passing clouds.


Feels Like: 70 °F
Forecast: 60 / 85 °F
Wind: 5 mph from North

Location: Bologna / Borgo Panigale

Current Time: Jul 14, 2014 at 10:35:08 AM

Latest Report: Jul 14, 2014 at 9:50 AM


Visibility: N/A

Pressure: 29.92 "Hg

Humidity: 78%

Dew point: 63 °F

Location of ModenaLocation

Historic Weather in Modena — Graph

°F

Modena temperature yesterday

Maximum temperature yesterday: 81 °F (at 3:50 PM)
Minimum temperature yesterday: 63 °F (at 1:50 AM)
Average temperature yesterday: 71 °F

Past Weeks' High & Low Weather Summary

 TemperatureHumidityPressure
High90 °F (Jul 7, 2:50 PM)100% (Jul 4, 4:20 AM)30.27 "Hg (Jul 4, 4:20 AM)
Low59 °F (Jul 10, 2:50 AM)28% (Jun 30, 4:50 PM)29.68 "Hg (Jul 8, 3:20 PM)
Average72 °F67%29.90 "Hg
* Reported Jun 29 9:20 AM — Jul 14 9:20 AM, Modena, Weather by CustomWeather, © 2014

Note: Actual official high and low records may vary slightly from our data, if they occured in-between our weather recording intervals... More about our weather records

Advertising

Modena weather history for previous 24 hours

 ConditionsComfort  
Time TempWeatherWind HumidityBarometerVisibility
9:20 AM
Jul 14
70 °FPassing clouds.3 mph78%29.92 "HgN/A
8:50 AM68 °FPassing clouds.5 mph83%29.92 "HgN/A
8:20 AM68 °FPassing clouds.5 mph83%29.92 "HgN/A
7:50 AM68 °FPassing clouds.5 mph78%29.92 "HgN/A
7:20 AM66 °FPassing clouds.6 mph83%29.89 "HgN/A
6:50 AM66 °FPassing clouds.5 mph83%29.89 "HgN/A
6:20 AM66 °FPassing clouds.2 mph83%29.89 "HgN/A
5:50 AM66 °FPassing clouds.5 mph83%29.89 "HgN/A
5:20 AM66 °FPassing clouds.3 mph83%29.89 "HgN/A
4:50 AM66 °FPassing clouds.2 mph83%29.89 "HgN/A
4:20 AM66 °FPassing clouds.2 mph83%29.89 "HgN/A
3:50 AM66 °FClear.2 mph83%29.86 "Hg10 mi
3:20 AM66 °FClear.6 mph83%29.86 "Hg10 mi
2:50 AM66 °FPassing clouds.6 mph83%29.86 "HgN/A
2:20 AM68 °FPassing clouds.5 mph78%29.86 "HgN/A
1:50 AM68 °FPassing clouds.8 mph73%29.86 "HgN/A
1:20 AM70 °FClear.10 mph69%29.86 "Hg10 mi
12:50 AM70 °FClear.10 mph69%29.86 "Hg10 mi
12:20 AM70 °FClear.9 mph73%29.86 "Hg10 mi
11:50 PM
Jul 13
72 °FClear.9 mph69%29.86 "Hg10 mi
11:20 PM72 °FClear.12 mph69%29.86 "Hg10 mi
10:50 PM72 °FPassing clouds.10 mph69%29.86 "HgN/A
10:20 PM72 °FPassing clouds.9 mph73%29.86 "HgN/A
9:50 PM73 °FPassing clouds.7 mph74%29.86 "HgN/A
9:20 PM73 °FPassing clouds.6 mph74%29.86 "HgN/A
8:50 PM75 °FSunny.6 mph69%29.83 "Hg10 mi
8:20 PM75 °FSunny.5 mph65%29.83 "Hg10 mi
7:50 PM77 °FSunny.5 mph57%29.83 "Hg10 mi
7:20 PM77 °FSunny.6 mph57%29.83 "Hg10 mi
6:50 PM79 °FPassing clouds.7 mph54%29.83 "HgN/A
6:20 PM77 °FPassing clouds.10 mph61%29.83 "HgN/A
5:50 PM77 °FPassing clouds.9 mph57%29.83 "HgN/A
5:20 PM81 °FPassing clouds.2 mph45%29.86 "HgN/A
4:20 PM81 °FPassing clouds.2 mph48%29.86 "HgN/A
3:50 PM81 °FPassing clouds.2 mph48%29.86 "HgN/A
3:20 PM79 °FPassing clouds.5 mph51%29.86 "HgN/A
2:50 PM79 °FPassing clouds.6 mph58%29.86 "HgN/A
2:20 PM77 °FPassing clouds.3 mph57%29.86 "HgN/A
1:50 PM77 °FScattered clouds.5 mph61%29.89 "HgN/A
1:20 PM75 °FScattered clouds.6 mph61%29.89 "HgN/A
12:50 PM75 °FScattered clouds.5 mph65%29.89 "HgN/A
12:20 PM73 °FScattered clouds.5 mph69%29.89 "HgN/A
11:50 AM73 °FPassing clouds.3 mph74%29.89 "HgN/A
11:20 AM72 °FPassing clouds.2 mph73%29.92 "HgN/A
10:50 AM72 °FPassing clouds.2 mph73%29.92 "HgN/A
10:20 AM68 °FPassing clouds.2 mph83%29.89 "HgN/A
Weather by CustomWeather, © 2014

See weather overviewHow to use our weather pages